Time,TemperatureF,DewpointF,PressureIn,WindDirection,WindDirectionDegrees,WindSpeedMPH,WindSpeedGustMPH,Humidity,HourlyPrecipIn,Conditions,Clouds,dailyrainin,SolarRadiationWatts/m^2,SoftwareType,DateUTC
2013-01-13 00:03:00,72.0,66.0,-100.00,South,187,11.0,24.0,81,0.00,,,0.12,0.000000,,2013-01-13 06:03:00,
2013-01-13 00:12:00,72.0,66.0,-100.00,South,187,11.0,24.0,81,0.00,,,0.12,0.000000,,2013-01-13 06:12:00,
2013-01-13 00:22:00,72.0,66.0,-100.00,South,187,11.0,24.0,81,0.00,,,0.12,0.000000,,2013-01-13 06:22:00,
2013-01-13 00:32:00,72.0,65.0,-100.00,SSW,196,11.0,22.0,80,0.00,,,0.04,0.000000,,2013-01-13 06:32:00,
2013-01-13 00:52:00,72.0,65.0,-100.00,SSW,196,11.0,22.0,80,0.00,,,0.04,0.000000,,2013-01-13 06:52:00,
2013-01-13 01:02:00,72.0,65.0,-100.00,SSW,196,11.0,22.0,80,0.00,,,0.04,0.000000,,2013-01-13 07:02:00,
2013-01-13 01:12:00,72.0,65.0,-100.00,SSW,196,11.0,22.0,80,0.00,,,0.04,0.000000,,2013-01-13 07:12:00,
2013-01-13 01:22:00,72.0,65.0,-100.00,SSW,196,11.0,22.0,80,0.00,,,0.04,0.000000,,2013-01-13 07:22:00,
2013-01-13 01:32:00,72.0,65.0,-100.00,SSW,202,8.0,19.0,79,0.00,,,0.04,0.000000,,2013-01-13 07:32:00,
2013-01-13 01:53:00,72.0,65.0,-100.00,SSW,202,8.0,19.0,79,0.00,,,0.04,0.000000,,2013-01-13 07:53:00,
2013-01-13 02:02:00,72.0,65.0,-100.00,SSW,202,8.0,19.0,79,0.00,,,0.04,0.000000,,2013-01-13 08:02:00,
2013-01-13 02:12:00,72.0,65.0,-100.00,SSW,202,8.0,19.0,79,0.00,,,0.04,0.000000,,2013-01-13 08:12:00,
2013-01-13 02:22:00,72.0,65.0,-100.00,SSW,202,8.0,19.0,79,0.00,,,0.04,0.000000,,2013-01-13 08:22:00,
2013-01-13 02:32:00,72.0,65.0,-100.00,SSW,210,6.0,14.0,80,0.00,,,0.03,0.000000,,2013-01-13 08:32:00,
2013-01-13 02:53:00,72.0,65.0,-100.00,SSW,210,6.0,14.0,80,0.00,,,0.03,0.000000,,2013-01-13 08:53:00,
2013-01-13 03:02:00,72.0,65.0,-100.00,SSW,210,6.0,14.0,80,0.00,,,0.03,0.000000,,2013-01-13 09:02:00,
2013-01-13 03:12:00,72.0,65.0,-100.00,SSW,210,6.0,14.0,80,0.00,,,0.03,0.000000,,2013-01-13 09:12:00,
2013-01-13 03:22:00,72.0,65.0,-100.00,SSW,210,6.0,14.0,80,0.00,,,0.03,0.000000,,2013-01-13 09:22:00,
2013-01-13 03:32:00,71.0,65.0,-100.00,SSW,198,7.0,12.0,82,0.00,,,0.03,0.000000,,2013-01-13 09:32:00,
2013-01-13 03:52:00,71.0,65.0,-100.00,SSW,198,7.0,12.0,82,0.00,,,0.03,0.000000,,2013-01-13 09:52:00,
2013-01-13 04:02:00,71.0,65.0,-100.00,SSW,198,7.0,12.0,82,0.00,,,0.03,0.000000,,2013-01-13 10:02:00,
2013-01-13 04:12:00,71.0,65.0,-100.00,SSW,198,7.0,12.0,82,0.00,,,0.03,0.000000,,2013-01-13 10:12:00,
2013-01-13 04:22:00,71.0,65.0,-100.00,SSW,198,7.0,12.0,82,0.00,,,0.03,0.000000,,2013-01-13 10:22:00,
2013-01-13 04:32:00,71.0,65.0,-100.00,South,191,8.0,14.0,81,0.00,,,0.01,0.000000,,2013-01-13 10:32:00,
2013-01-13 04:53:00,71.0,65.0,-100.00,South,191,8.0,14.0,81,0.00,,,0.01,0.000000,,2013-01-13 10:53:00,
2013-01-13 05:02:00,71.0,65.0,-100.00,South,191,8.0,14.0,81,0.00,,,0.01,0.000000,,2013-01-13 11:02:00,
2013-01-13 05:12:00,71.0,65.0,-100.00,South,191,8.0,14.0,81,0.00,,,0.01,0.000000,,2013-01-13 11:12:00,
2013-01-13 05:22:00,71.0,65.0,-100.00,South,191,8.0,14.0,81,0.00,,,0.01,0.000000,,2013-01-13 11:22:00,
2013-01-13 05:32:00,71.0,65.0,-100.00,SSW,196,8.0,18.0,81,0.00,,,-99.99,0.000000,,2013-01-13 11:32:00,
2013-01-13 05:53:00,71.0,65.0,-100.00,SSW,196,8.0,18.0,81,0.00,,,-99.99,0.000000,,2013-01-13 11:53:00,
2013-01-13 06:03:00,71.0,65.0,-100.00,SSW,196,8.0,18.0,81,0.00,,,-99.99,0.000000,,2013-01-13 12:03:00,
2013-01-13 06:12:00,71.0,65.0,-100.00,SSW,196,8.0,18.0,81,0.00,,,-99.99,0.000000,,2013-01-13 12:12:00,
2013-01-13 06:22:00,71.0,65.0,-100.00,SSW,196,8.0,18.0,81,0.00,,,-99.99,0.000000,,2013-01-13 12:22:00,
2013-01-13 06:32:00,71.0,65.0,-100.00,SSW,210,8.0,18.0,80,0.00,,,0.01,0.000000,,2013-01-13 12:32:00,
2013-01-13 06:53:00,71.0,65.0,-100.00,SSW,210,8.0,18.0,80,0.00,,,0.01,0.000000,,2013-01-13 12:53:00,
2013-01-13 07:03:00,71.0,65.0,-100.00,SSW,210,8.0,18.0,80,0.00,,,0.01,0.000000,,2013-01-13 13:03:00,
2013-01-13 07:12:00,71.0,65.0,-100.00,SSW,210,8.0,18.0,80,0.00,,,0.01,0.000000,,2013-01-13 13:12:00,
2013-01-13 07:22:00,71.0,65.0,-100.00,SSW,210,8.0,18.0,80,0.00,,,0.01,0.000000,,2013-01-13 13:22:00,
2013-01-13 07:32:00,55.0,50.0,-100.00,NW,311,7.0,19.0,83,0.00,,,0.01,0.000000,,2013-01-13 13:32:00,
2013-01-13 07:53:00,55.0,50.0,-100.00,NW,311,7.0,19.0,83,0.00,,,0.01,0.000000,,2013-01-13 13:53:00,
2013-01-13 08:03:00,55.0,50.0,-100.00,NW,311,7.0,19.0,83,0.00,,,0.01,0.000000,,2013-01-13 14:03:00,
2013-01-13 08:12:00,55.0,50.0,-100.00,NW,311,7.0,19.0,83,0.00,,,0.01,0.000000,,2013-01-13 14:12:00,
2013-01-13 08:22:00,55.0,50.0,-100.00,NW,311,7.0,19.0,83,0.00,,,0.01,0.000000,,2013-01-13 14:22:00,
2013-01-13 08:32:00,51.0,48.0,-100.00,WNW,293,5.0,14.0,89,0.02,,,0.03,4.000000,,2013-01-13 14:32:00,
2013-01-13 09:03:00,51.0,48.0,-100.00,WNW,293,5.0,14.0,89,0.02,,,0.03,4.000000,,2013-01-13 15:03:00,
2013-01-13 09:12:00,51.0,48.0,-100.00,WNW,293,5.0,14.0,89,0.02,,,0.03,4.000000,,2013-01-13 15:12:00,
2013-01-13 09:23:00,51.0,48.0,-100.00,WNW,293,5.0,14.0,89,0.02,,,0.03,4.000000,,2013-01-13 15:23:00,
2013-01-13 09:32:00,48.0,45.0,-100.00,WNW,293,6.0,16.0,89,0.01,,,0.04,26.000000,,2013-01-13 15:32:00,
2013-01-13 09:53:00,48.0,45.0,-100.00,WNW,293,6.0,16.0,89,0.01,,,0.04,26.000000,,2013-01-13 15:53:00,
2013-01-13 10:03:00,48.0,45.0,-100.00,WNW,293,6.0,16.0,89,0.01,,,0.04,26.000000,,2013-01-13 16:03:00,
2013-01-13 10:12:00,48.0,45.0,-100.00,WNW,293,6.0,16.0,89,0.01,,,0.04,26.000000,,2013-01-13 16:12:00,
2013-01-13 10:23:00,48.0,45.0,-100.00,WNW,293,6.0,16.0,89,0.01,,,0.04,26.000000,,2013-01-13 16:23:00,
2013-01-13 10:32:00,49.0,46.0,-100.00,North,0,3.0,12.0,89,0.00,,,0.04,62.000000,,2013-01-13 16:32:00,
2013-01-13 10:53:00,49.0,46.0,-100.00,North,0,3.0,12.0,89,0.00,,,0.04,62.000000,,2013-01-13 16:53:00,
2013-01-13 11:03:00,49.0,46.0,-100.00,North,0,3.0,12.0,89,0.00,,,0.04,62.000000,,2013-01-13 17:03:00,
2013-01-13 11:12:00,49.0,46.0,-100.00,North,0,3.0,12.0,89,0.00,,,0.04,62.000000,,2013-01-13 17:12:00,
2013-01-13 11:22:00,49.0,46.0,-100.00,North,0,3.0,12.0,89,0.00,,,0.04,62.000000,,2013-01-13 17:22:00,
2013-01-13 11:32:00,47.0,44.0,-100.00,NNW,331,5.0,13.0,90,0.58,,,0.61,10.000000,,2013-01-13 17:32:00,
2013-01-13 11:53:00,47.0,44.0,-100.00,NNW,331,5.0,13.0,90,0.58,,,0.61,10.000000,,2013-01-13 17:53:00,
2013-01-13 12:03:00,47.0,44.0,-100.00,NNW,331,5.0,13.0,90,0.58,,,0.61,10.000000,,2013-01-13 18:03:00,
2013-01-13 12:12:00,47.0,44.0,-100.00,NNW,331,5.0,13.0,90,0.58,,,0.61,10.000000,,2013-01-13 18:12:00,
2013-01-13 12:23:00,47.0,44.0,-100.00,NNW,331,5.0,13.0,90,0.58,,,0.61,10.000000,,2013-01-13 18:23:00,
2013-01-13 12:32:00,46.0,43.0,-100.00,NNW,331,5.0,13.0,89,0.16,,,0.77,22.000000,,2013-01-13 18:32:00,
2013-01-13 12:53:00,46.0,43.0,-100.00,NNW,331,5.0,13.0,89,0.16,,,0.77,22.000000,,2013-01-13 18:53:00,
2013-01-13 13:03:00,46.0,43.0,-100.00,NNW,331,5.0,13.0,89,0.16,,,0.77,22.000000,,2013-01-13 19:03:00,
2013-01-13 13:12:00,46.0,43.0,-100.00,NNW,331,5.0,13.0,89,0.16,,,0.77,22.000000,,2013-01-13 19:12:00,
2013-01-13 13:22:00,46.0,43.0,-100.00,NNW,331,5.0,13.0,89,0.16,,,0.77,22.000000,,2013-01-13 19:22:00,
2013-01-13 13:32:00,45.0,42.0,-100.00,NW,322,4.0,14.0,89,0.03,,,0.80,61.000000,,2013-01-13 19:32:00,
2013-01-13 13:53:00,45.0,42.0,-100.00,NW,322,4.0,14.0,89,0.03,,,0.80,61.000000,,2013-01-13 19:53:00,
2013-01-13 14:03:00,45.0,42.0,-100.00,NW,322,4.0,14.0,89,0.03,,,0.80,61.000000,,2013-01-13 20:03:00,
2013-01-13 14:12:00,45.0,42.0,-100.00,NW,322,4.0,14.0,89,0.03,,,0.80,61.000000,,2013-01-13 20:12:00,
2013-01-13 14:22:00,45.0,42.0,-100.00,NW,322,4.0,14.0,89,0.03,,,0.80,61.000000,,2013-01-13 20:22:00,
2013-01-13 14:32:00,46.0,43.0,-100.00,NW,314,3.0,11.0,89,0.00,,,0.80,87.000000,,2013-01-13 20:32:00,
2013-01-13 14:53:00,46.0,43.0,-100.00,NW,314,3.0,11.0,89,0.00,,,0.80,87.000000,,2013-01-13 20:53:00,
2013-01-13 15:03:00,46.0,43.0,-100.00,NW,314,3.0,11.0,89,0.00,,,0.80,87.000000,,2013-01-13 21:03:00,
2013-01-13 15:12:00,46.0,43.0,-100.00,NW,314,3.0,11.0,89,0.00,,,0.80,87.000000,,2013-01-13 21:12:00,
2013-01-13 15:23:00,46.0,43.0,-100.00,NW,314,3.0,11.0,89,0.00,,,0.80,87.000000,,2013-01-13 21:23:00,
2013-01-13 15:32:00,46.0,43.0,-100.00,NNW,345,4.0,10.0,88,0.00,,,0.80,69.000000,,2013-01-13 21:32:00,
2013-01-13 15:53:00,46.0,43.0,-100.00,NNW,345,4.0,10.0,88,0.00,,,0.80,69.000000,,2013-01-13 21:53:00,
2013-01-13 16:02:00,46.0,43.0,-100.00,NNW,345,4.0,10.0,88,0.00,,,0.80,69.000000,,2013-01-13 22:02:00,
2013-01-13 16:12:00,46.0,43.0,-100.00,NNW,345,4.0,10.0,88,0.00,,,0.80,69.000000,,2013-01-13 22:12:00,
2013-01-13 16:22:00,46.0,43.0,-100.00,NNW,345,4.0,10.0,88,0.00,,,0.80,69.000000,,2013-01-13 22:22:00,
2013-01-13 16:32:00,46.0,42.0,-100.00,North,10,4.0,12.0,85,0.00,,,0.80,49.000000,,2013-01-13 22:32:00,
2013-01-13 16:53:00,46.0,42.0,-100.00,North,10,4.0,12.0,85,0.00,,,0.80,49.000000,,2013-01-13 22:53:00,
2013-01-13 17:02:00,46.0,42.0,-100.00,North,10,4.0,12.0,85,0.00,,,0.80,49.000000,,2013-01-13 23:02:00,
2013-01-13 17:12:00,46.0,42.0,-100.00,North,10,4.0,12.0,85,0.00,,,0.80,49.000000,,2013-01-13 23:12:00,
2013-01-13 17:22:00,46.0,42.0,-100.00,North,10,4.0,12.0,85,0.00,,,0.80,49.000000,,2013-01-13 23:22:00,
2013-01-13 17:32:00,45.0,41.0,-100.00,NNE,17,4.0,14.0,86,0.00,,,0.80,11.000000,,2013-01-13 23:32:00,
2013-01-13 17:53:00,45.0,41.0,-100.00,NNE,17,4.0,14.0,86,0.00,,,0.80,11.000000,,2013-01-13 23:53:00,
2013-01-13 18:03:00,45.0,41.0,-100.00,NNE,17,4.0,14.0,86,0.00,,,0.80,11.000000,,2013-01-14 00:03:00,
2013-01-13 18:12:00,45.0,41.0,-100.00,NNE,17,4.0,14.0,86,0.00,,,0.80,11.000000,,2013-01-14 00:12:00,
2013-01-13 18:22:00,45.0,41.0,-100.00,NNE,17,4.0,14.0,86,0.00,,,0.80,11.000000,,2013-01-14 00:22:00,
2013-01-13 18:32:00,44.0,40.0,-100.00,NNE,28,4.0,14.0,87,0.00,,,0.80,0.000000,,2013-01-14 00:32:00,
2013-01-13 18:53:00,44.0,40.0,-100.00,NNE,28,4.0,14.0,87,0.00,,,0.80,0.000000,,2013-01-14 00:53:00,
2013-01-13 19:03:00,44.0,40.0,-100.00,NNE,28,4.0,14.0,87,0.00,,,0.80,0.000000,,2013-01-14 01:03:00,
2013-01-13 19:12:00,44.0,40.0,-100.00,NNE,28,4.0,14.0,87,0.00,,,0.80,0.000000,,2013-01-14 01:12:00,
2013-01-13 19:22:00,44.0,40.0,-100.00,NNE,28,4.0,14.0,87,0.00,,,0.80,0.000000,,2013-01-14 01:22:00,
2013-01-13 19:32:00,44.0,41.0,-100.00,NE,36,6.0,13.0,88,0.00,,,0.80,0.000000,,2013-01-14 01:32:00,
2013-01-13 19:53:00,44.0,41.0,-100.00,NE,36,6.0,13.0,88,0.00,,,0.80,0.000000,,2013-01-14 01:53:00,
2013-01-13 20:03:00,44.0,41.0,-100.00,NE,36,6.0,13.0,88,0.00,,,0.80,0.000000,,2013-01-14 02:03:00,
2013-01-13 20:12:00,44.0,41.0,-100.00,NE,36,6.0,13.0,88,0.00,,,0.80,0.000000,,2013-01-14 02:12:00,
2013-01-13 20:22:00,44.0,41.0,-100.00,NE,36,6.0,13.0,88,0.00,,,0.80,0.000000,,2013-01-14 02:22:00,
2013-01-13 20:32:00,44.0,41.0,-100.00,NE,35,5.0,13.0,88,0.00,,,0.80,0.000000,,2013-01-14 02:32:00,
2013-01-13 20:53:00,44.0,41.0,-100.00,NE,35,5.0,13.0,88,0.00,,,0.80,0.000000,,2013-01-14 02:53:00,
2013-01-13 21:02:00,44.0,41.0,-100.00,NE,35,5.0,13.0,88,0.00,,,0.80,0.000000,,2013-01-14 03:02:00,
2013-01-13 21:12:00,44.0,41.0,-100.00,NE,35,5.0,13.0,88,0.00,,,0.80,0.000000,,2013-01-14 03:12:00,
2013-01-13 21:22:00,44.0,41.0,-100.00,NE,35,5.0,13.0,88,0.00,,,0.80,0.000000,,2013-01-14 03:22:00,
2013-01-13 21:32:00,44.0,40.0,-100.00,NE,40,5.0,14.0,86,0.00,,,0.80,0.000000,,2013-01-14 03:32:00,
2013-01-13 21:53:00,44.0,40.0,-100.00,NE,40,5.0,14.0,86,0.00,,,0.80,0.000000,,2013-01-14 03:53:00,
2013-01-13 22:02:00,44.0,40.0,-100.00,NE,40,5.0,14.0,86,0.00,,,0.80,0.000000,,2013-01-14 04:02:00,
2013-01-13 22:12:00,44.0,40.0,-100.00,NE,40,5.0,14.0,86,0.00,,,0.80,0.000000,,2013-01-14 04:12:00,
2013-01-13 22:22:00,44.0,40.0,-100.00,NE,40,5.0,14.0,86,0.00,,,0.80,0.000000,,2013-01-14 04:22:00,
2013-01-13 22:32:00,43.0,39.0,-100.00,NE,36,6.0,14.0,85,0.00,,,0.80,0.000000,,2013-01-14 04:32:00,
2013-01-13 22:53:00,43.0,39.0,-100.00,NE,36,6.0,14.0,85,0.00,,,0.80,0.000000,,2013-01-14 04:53:00,
2013-01-13 23:04:00,43.0,39.0,-100.00,NE,36,6.0,14.0,85,0.00,,,0.80,0.000000,,2013-01-14 05:04:00,
2013-01-13 23:12:00,43.0,39.0,-100.00,NE,36,6.0,14.0,85,0.00,,,0.80,0.000000,,2013-01-14 05:12:00,
2013-01-13 23:22:00,43.0,39.0,-100.00,NE,36,6.0,14.0,85,0.00,,,0.80,0.000000,,2013-01-14 05:22:00,
2013-01-13 23:32:00,42.0,35.0,-100.00,NE,44,10.0,17.0,75,0.00,,,0.80,0.000000,,2013-01-14 05:32:00,
2013-01-13 23:53:00,42.0,35.0,-100.00,NE,44,10.0,17.0,75,0.00,,,0.80,0.000000,,2013-01-14 05:53:00,